FREGAT DEB, 46260

Orbit data source: Space-Track

FREGAT DEB, 46260 is space debris in LEO originally from a launch on Mon, 18 Jul 2011 UTC launched from the Tyuratam Missile And Space Complex (TTMTR). Debris objects in space refer to the collection of defunct objects orbiting the Earth. Examples of debris include non-operational satellites, rocket bodies, and fragments generated from explosions, collisions, or faulty payload assembly.

Loading next visibility...
Identifier
46260, 2011-037KW
Orbit
LEO
Country
Flag of CISCIS
Related business
Manufacturer
Lavochkin
Mission
Spacecraft
Bus & Motor
Unknown
Mass
Unknown
Launch date (UTC)
2011-07-18 (15 years ago)
Launch vehicle
Unknown
Launch site
Tyuratam Missile And Space Complex (TTMTR)
Object type
Payload
Rocket body
Debris
Shape & HBR
Unknown shape, 0.2 m
Radar Cross Section
Medium (>0.1 m² and <1 m²)

Expand to show TLE details & history
Last TLE update: 2 days ago

TLE from 2 days ago
0 FREGAT DEB
1 46260U 11037KW  26171.08326111  .00042657  00000-0  23789+0 0  9991
2 46260  51.4356  75.9194 1540939  47.2435 324.8097 10.74387090 52396
Epoch: 2026-06-20T01:59Z
TLE epoch observation values (Epoch: 2026-06-20T01:59:53.759Z)
Latitude
0.00003°
Longitude
137.64245°
Altitude
1,288.638 km
Speed
7.62 km/s
True Right ascension
05h 03m 40s
True Declination
0° 00' 00"
Sunlit
Object was in daylight at epoch
Visualization orbit readout
Latitude
Unknown
Longitude
Unknown
Altitude
Unknown
Speed
Unknown
Apparent Right ascension
Unknown
Apparent Declination
Unknown
Sunlit
N/A
Visualization observer readout
Local Sidereal Time
21:38:00
Azimuth
Unknown
Elevation
Unknown
Doppler factor
Unknown
Orbital elements
Apogee altitude
3,634.718 km
Perigee altitude
960.897 km
Semi-major axis
8,675.945 km
Eccentricity
0.15409
Inclination
51.4356°
RAAN
75.9194°
Arg. of periapsis
47.2435°
True anomaly
312.83888°
Mean anomaly
324.8097°
Eccentric anomaly
319.01969°
Mean motion
2.68577 °/min
Orbital period
134.04 mins
BSTAR
0.23789
Loading maneuver chart data...
Computing Atmospheric mass density...
Loading historical data...
Loading historical data...
Loading historical data...
Loading historical data...
Loading historical data...
Loading historical data...
Loading historical data...

Documentation

Showing up to 5 results
|